This demonstration page uses our WeatherBlox Daily Observations layout. Learn more.

36.17497, -115.13722

Hourly Observations for October 1, 2020

Temp ( °F °C ) Dew Point ( °F °C ) Humidity (%) Winds ( mph kmh ) Pressure ( in mb ) Visibility ( mi km ) Precip ( " mm )
12:53 am 00:53 Clear 77 25 23 -5 13 13 SW 5 7 30.01 1016 10 16.0934 0 0
1:53 am 01:53 Clear 73 22.8 23 -5 15 15 Calm 30.02 1017 10 16.0934 0 0
2:53 am 02:53 Clear 76 24.4 23 -5 14 14 W 6 9 30.02 1017 10 16.0934 0 0
3:53 am 03:53 Clear 73 22.8 23 -5 15 15 Calm 30.02 1017 10 16.0934 0 0
4:53 am 04:53 Clear 72 22.2 22 -5.6 15 15 W 3 6 30.03 1017 10 16.0934 0 0
5:53 am 05:53 Clear 69 20.6 20 -6.7 15 15 Calm 30.04 1017 10 16.0934 0 0
6:53 am 06:53 Sunny 72 22.2 22 -5.6 15 15 W 6 9 30.05 1018 10 16.0934 0 0
7:53 am 07:53 Sunny 75 23.9 21 -6.1 13 13 Calm 30.07 1018 10 16.0934 0 0
8:53 am 08:53 Sunny 82 27.8 19 -7.2 9 9 Calm 30.08 1019 10 16.0934 0 0
9:53 am 09:53 Sunny 90 32.2 15 -9.4 6 6 NNE 7 11 30.08 1019 10 16.0934 0 0
10:53 am 10:53 Sunny 93 33.9 13 -10.6 5 5 NNE 6 9 30.07 1018 10 16.0934 0 0
11:53 am 11:53 Sunny 94 34.4 14 -10 5 5 SE 3 6 30.06 1018 10 16.0934 0 0
12:53 pm 12:53 Sunny 97 36.1 14 -10 5 5 Calm 30.03 1017 10 16.0934 0 0
1:53 pm 13:53 Sunny 98 36.7 13 -10.6 4 4 Calm 30 1016 10 16.0934 0 0
2:53 pm 14:53 Sunny 100 37.8 12 -11.1 4 4 Calm 29.96 1015 10 16.0934 0 0
3:53 pm 15:53 Sunny 101 38.3 11 -11.7 4 4 Calm 29.96 1014 10 16.0934 0 0
4:53 pm 16:53 Sunny 101 38.3 9 -12.8 3 3 E 6 9 29.94 1014 10 16.0934 0 0
5:53 pm 17:53 Sunny 97 36.1 11 -11.7 4 4 ESE 7 11 29.94 1014 10 16.0934 0 0
6:53 pm 18:53 Clear 93 33.9 13 -10.6 5 5 Calm 29.94 1014 10 16.0934 0 0
7:53 pm 19:53 Clear 88 31.1 23 -5 9 9 W 7 11 29.95 1014 10 16.0934 0 0
8:53 pm 20:53 Clear 83 28.3 22 -5.6 10 10 NW 8 13 29.96 1014 10 16.0934 0 0
9:53 pm 21:53 Clear 80 26.7 20 -6.7 10 10 NW 7 11 29.95 1014 10 16.0934 0 0
10:53 pm 22:53 Clear 79 26.1 19 -7.2 10 10 Calm 29.96 1015 10 16.0934 0 0
11:53 pm 23:53 Clear 74 23.3 22 -5.6 14 14 E 5 7 29.98 1015 10 16.0934 0 0

Powered by AerisWeather